Location: Newark
(48.2308°N, 120.8549°W)
Time: 14:12:20
(UTC+00:00)

Transit 2A Rocket - Pass Details

Date: 26 May 2020
Orbit: 584 x 919 km, 66.7° (Epoch: 07 July)

Event Time Altitude Azimuth Distance (km) Brightness Sun altitude
Rises 10:45:54 0° 288° (WNW) 3,240 8.0 -11.3°
Reaches altitude 10° 10:49:30 10° 314° (NW) 2,391 7.6 -10.9°
Maximum altitude 10:52:22 14° 345° (NNW) 2,168 7.8 -10.6°
Drops below altitude 10° 10:55:21 10° 16° (NNE) 2,502 8.8 -10.3°
Sets 10:59:16 0° 41° (NE) 3,499 10.8 -9.9°
